Hourly Data Report for February 23, 2004

TORONTO CITY
ONTARIO

43°40'00.000" N
79°24'00.000" W
112.50 m
6158355
71508
XTO

Download Data

Hourly Data (February 2004)
Hourly Data Report for February 23, 2004
TIME
LST
Temp Definition
°C
Dew Point Definition
°C
Rel Hum Definition
%
Precip. Amount Definition
mm

Wind Dir Definition
10's deg

Wind Spd Definition
km/h
Visibility Definition
km
Stn Press Definition
kPa
Hmdx Definition


Wind Chill Definition


Weather Definition


00:00 -2.0 -7.3 67   LegendMM LegendMM LegendMM 101.22     LegendNANA
01:00 -2.5 -7.6 68   LegendMM LegendMM LegendMM 101.25     LegendNANA
02:00 -3.2 -8.2 68   LegendMM LegendMM LegendMM 101.27     LegendNANA
03:00 -3.5 -8.5 68   LegendMM LegendMM LegendMM 101.27     LegendNANA
04:00 -3.7 -7.3 76   LegendMM LegendMM LegendMM 101.27     LegendNANA
05:00 -4.1 -7.8 75   LegendMM LegendMM LegendMM 101.33     LegendNANA
06:00 -4.3 -7.5 78   LegendMM LegendMM LegendMM 101.32     LegendNANA
07:00 -4.9 -7.9 79   LegendMM LegendMM LegendMM 101.33     LegendNANA
08:00 -4.8 -8.2 77   LegendMM LegendMM LegendMM 101.35     LegendNANA
09:00 -3.1 -7.9 69   LegendMM LegendMM LegendMM 101.35     LegendNANA
10:00 -1.2 -5.9 70   LegendMM LegendMM LegendMM 101.34     LegendNANA
11:00 -0.8 -5.3 72   LegendMM LegendMM LegendMM 101.33     LegendNANA
12:00 -0.5 -4.9 72   LegendMM LegendMM LegendMM 101.29     LegendNANA
13:00 -1.1 -5.2 74   LegendMM LegendMM LegendMM 101.19     LegendNANA
14:00 -1.4 -5.7 72   LegendMM LegendMM LegendMM 101.09     LegendNANA
15:00 -1.2 -5.3 74   LegendMM LegendMM LegendMM 101.06     LegendNANA
16:00 -1.1 -5.3 73   LegendMM LegendMM LegendMM 101.07     LegendNANA
17:00 -1.4 -5.4 74   LegendMM LegendMM LegendMM 101.02     LegendNANA
18:00 -1.3 -5.4 74   LegendMM LegendMM LegendMM 101.02     LegendNANA
19:00 -1.6 -5.8 73   LegendMM LegendMM LegendMM 101.00     LegendNANA
20:00 -1.4 -5.7 72   LegendMM LegendMM LegendMM 100.98     LegendNANA
21:00 -1.3 -5.3 74   LegendMM LegendMM LegendMM 100.93     LegendNANA
22:00 -1.3 -5.5 73   LegendMM LegendMM LegendMM 100.90     LegendNANA
23:00 -1.2 -6.2 69   LegendMM LegendMM LegendMM 100.94     LegendNANA

Notes on Data Quality.

Legend

  • E = Estimated
  • M = Missing
  • NA = Not Available*
  • [empty] = Indicates an unobserved value
Date modified: